Regional Weather Roundup
Issued by NWS Kansas City/Pleasant Hill, MO

Home | Current Version | Previous Version | Graphics & Text | Print | Product List | Glossary Off
Versions: 1 2 3 4 5 6 7 8 9 10 11 12 13 14 15 16 17 18 19 20 21 22 23 24 25 26 27 28 29 30 31 32 33 34 35 36 37 38 39 40 41 42 43 44 45 46 47 48 49 50

865
ASUS43 KEAX 172210
RWREAX

WEATHER ROUNDUP FOR EASTERN KANSAS AND NORTHWEST MISSOURI
NATIONAL WEATHER SERVICE KANSAS CITY/PLEASANT HILL MO
500 PM CDT THU AUG 17 2017

KSZ040-057-103>105-MOZ028-029-037-043-172300-
...KANSAS CITY METROPOLITAN AREA...

CITY           SKY/WX    TMP DP  RH WIND       PRES   REMARKS
K.C. INTL      MOSUNNY   84  62  47 W7        29.94F
K.C. DOWNTOWN  SUNNY     84  62  47 W12       29.92F
LEES SUMMIT    SUNNY     82  61  48 W10       29.95S
OLATHE - IXD   SUNNY     82  61  48 W12       29.96F
OLATHE - OJC   SUNNY     81  60  48 W10       29.96F
LAWRENCE       SUNNY     85  61  44 W6        29.95S

$$

MOZ001>008-011>017-020>025-030>033-038>040-044>046-053-054-172300-
...NORTHERN AND CENTRAL MISSOURI...

CITY           SKY/WX    TMP DP  RH WIND       PRES   REMARKS
ST. JOSEPH     SUNNY     83  61  47 W14       29.93S
MOSBY          CLEAR     82  59  44 W9        29.92F
WARRENSBURG    SUNNY     81  59  47 W6        29.93F
WHITEMAN AFB   SUNNY     83  64  53 W14       29.92F
CLINTON        SUNNY     82  64  54 W10       29.94F
SEDALIA        SUNNY     83  65  54 W12       29.93F
WARSAW         NOT AVBL
CHILLICOTHE      N/A     84  59  42 W8        29.91S
KIRKSVILLE     SUNNY     84  60  44 W15G23    29.87S

$$

MOZ041-047>049-056>058-063>065-088>090-097-172300-
...EASTERN AND SOUTHERN MISSOURI...

CITY           SKY/WX    TMP DP  RH WIND       PRES   REMARKS
ST. LOUIS INTL PTSUNNY   84  67  56 SW18      29.87R
SPIRIT OF STL  MOSUNNY   83  70  64 W9        29.86R
COLUMBIA       MOSUNNY   82  65  56 W13       29.90F
JEFFERSON CITY MOSUNNY   82  67  60 W14G23    29.89F
ROLLA          CLOUDY    80  66  62 W14       29.94S
OSAGE BEACH    SUNNY     81  63  54 W12G20    29.94S
SPRINGFIELD    MOSUNNY   83  68  60 NW10G20   29.96F
BRANSON        PTSUNNY   82  68  61 W7        29.99F
JOPLIN         MOSUNNY   86  70  58 W12G18    29.98F HX  90
WEST PLAINS    PTSUNNY   83  68  60 W7G16     29.96F

$$

IAZ060-094-KSZ022-034>040-054-083-096-NEZ052-066-093-172300-
...KANSAS...SOUTHEAST NEBRASKA AND IOWA...

CITY           SKY/WX    TMP DP  RH WIND       PRES   REMARKS
TOPEKA         SUNNY     86  59  39 W6        29.95S
MANHATTAN      SUNNY     87  61  41 NW5       29.97S
EMPORIA        SUNNY     85  58  39 N8        29.99F
CHANUTE        SUNNY     85  59  41 W9        29.99F
WICHITA        MOSUNNY   87  56  34 CALM      30.00F
OMAHA          SUNNY     84  56  38 NW16      29.91S
LINCOLN        SUNNY     84  58  40 W9        29.95S
FALLS CITY     SUNNY     83  57  41 NW9       29.93F
LAMONI         SUNNY     82  60  47 W16G26    29.89S
DES MOINES     MOSUNNY   82  59  45 W21       29.84S

$$





USA.gov is the U.S. government's official web portal to all federal, state and local government web resources and services.